Location: Koslow
(50.3020°N, 18.5663°E)
Time: 07:15:56
(UTC+00:00)

STARLINK-1357 - Pass Details

Date: 05 October 2020
Orbit: 548 x 551 km, 53.0° (Epoch: 31 October)

Event Time Altitude Azimuth Distance (km) Brightness Sun altitude
Exits shadow 03:57:03 11° 290° (WNW) 1,766 5.6 -9.7°
Maximum altitude 04:01:03 79° 16° (NNE) 567 3.7 -9.0°
Drops below altitude 10° 04:05:13 10° 105° (ESE) 1,828 7.7 -8.4°
Sets 04:07:27 0° 107° (ESE) 2,721 8.8 -8.0°
